Regional Weather Roundup
Issued by NWS Boston, MA

Current Version | Previous Version | Graphics & Text | Print | Product List | Glossary On
Versions: 1 2 3 4 5 6 7 8 9 10 11 12 13 14 15 16 17 18 19 20 21 22 23 24 25 26 27 28 29 30 31 32 33 34 35 36 37 38 39 40 41 42 43 44 45 46 47 48 49 50
000
ASUS41 KBOX 242210
RWRBOX

REGIONAL WEATHER ROUNDUP
NATIONAL WEATHER SERVICE BOSTON/NORTON MA
600 PM EDT MON JUN 24 2019

NOTE:  "FAIR" INDICATES FEW OR NO CLOUDS BELOW 12,000 FEET WITH NO
SIGNIFICANT WEATHER AND/OR OBSTRUCTIONS TO VISIBILITY.

MAZALL-242300-
EASTERN MASSACHUSETTS

CITY           SKY/WX    TMP DP  RH WIND       PRES   REMARKS
BOSTON         PTSUNNY   72  52  49 E13       29.82F
BEVERLY        FAIR      69  51  52 SE10      29.84R
LAWRENCE       FAIR      75  49  39 SE5       29.84R
BEDFORD        FAIR      78  51  38 E9        29.81R
BLUE HILL        N/A     76  57  51 SE7       29.83S
NORWOOD        FAIR      81  57  43 CALM      29.81S
MARSHFIELD     FAIR      72  52  49 SE6       29.83S
PLYMOUTH       FAIR      77  53  43 E8        29.83S
TAUNTON        FAIR      82  62  50 SE7       29.81R
NEW BEDFORD    FAIR      76  58  53 SW9       29.82R
$$

MAZALL-242300-
CAPE COD AND THE ISLANDS

CITY           SKY/WX    TMP DP  RH WIND       PRES   REMARKS
FALMOUTH       FAIR      77  57  50 S12       29.85S
HYANNIS        FAIR      72  56  57 SE7       29.84S
CHATHAM        FAIR      70  55  59 VRB3      29.88R
PROVINCETOWN   FAIR      74  49  41 E8        29.86R
NANTUCKET      FAIR      70  59  68 SE3       29.86S
MARTHAS VNYRD  FAIR      72  58  61 SW7       29.85R
$$

MAZALL-242300-
CENTRAL AND WESTERN MASSACHUSETTS

CITY           SKY/WX    TMP DP  RH WIND       PRES   REMARKS
WORCESTER      FAIR      78  57  48 W6        29.86S
FITCHBURG      FAIR      83  56  39 SW7       29.82S
ORANGE         FAIR      83  49  30 W9        29.84S
SPRINGFIELD    PTSUNNY   82  52  34 NW7       29.82S
WESTFIELD      FAIR      83  51  33 NW5       29.83S
NORTH ADAMS    FAIR      77  63  61 CALM      29.84S
PITTSFIELD     FAIR      77  52  41 CALM      29.86S
$$

RIZALL-242300-
RHODE ISLAND

CITY           SKY/WX    TMP DP  RH WIND       PRES   REMARKS
PROVIDENCE     PTSUNNY   81  58  45 W10G20    29.82S
NEWPORT        FAIR      78  59  51 VRB6      29.83S
BLOCK ISLAND   FAIR      75  53  46 SW14      29.85F
SMITHFIELD     FAIR      78  57  48 W6        29.84S
WESTERLY       FAIR      80  59  48 W8        29.85S
$$

CTZALL-242300-
CONNECTICUT

CITY           SKY/WX    TMP DP  RH WIND       PRES   REMARKS
BRADLEY INTL   PTSUNNY   84  53  34 W8        29.82S
HARTFORD       FAIR      83  54  36 W8        29.82S
BRIDGEPORT     LGT RAIN  78  60  53 S9        29.83F
DANBURY        FAIR      75  61  61 SE5       29.86F
GROTON         FAIR      77  55  46 W8        29.83F
NEW HAVEN      FAIR      78  61  55 SW5       29.84S
CHESTER        FAIR      79  57  47 SW5       29.85F
MERIDEN        FAIR      81  57  43 SW7       29.83F
WILLIMANTIC    FAIR      80  56  43 SW9       29.83S
OXFORD         FAIR      77  57  50 W3        29.87F
$$

MEZ002-015-021-024-NHZ003-005-008-011-012-014-VTZ005-008-242300-
NORTHERN NEW ENGLAND

CITY           SKY/WX    TMP DP  RH WIND       PRES   REMARKS
PORTLAND ME    FAIR      67  49  52 S7        29.85S
BANGOR ME      FAIR      77  41  27 NW9       29.82S
CONCORD NH     FAIR      83  47  28 NW6       29.81F
MANCHESTER NH  PTSUNNY   85  46  25 W6        29.80S
NASHUA NH      FAIR      84  52  33 W8        29.81S
PORTSMOUTH NH  PTSUNNY   69  47  44 SE12      29.83R
JAFFREY NH     FAIR      82  51  34 NW3       29.86S
KEENE NH       FAIR      79  53  40 N5        29.83S
BURLINGTON VT  FAIR      78  45  30 NW8       29.83S
MT. WASHINGTON MOSUNNY   52  32  46 NW26G33     N/A
$$

NYZ052-076-242300-
EASTERN NEW YORK

CITY           SKY/WX    TMP DP  RH WIND       PRES   REMARKS
ALBANY         PTSUNNY   81  56  42 S6        29.82F
NEW YORK CITY  PTSUNNY   83  54  36 S12       29.82F
$$

ANZALL-242300-
MARINE OBSERVATIONS

STATION/POSITION TIME  TEMP    WIND        PRES    VSBY  WAVE
                       AIR SEA DIR/SP/G                  HT/PER
                 (UTC) (F)     (DEG/KT/KT) (MB)    (MI)  (FT/S)
BOSTON BUOY      2150   63 61  100/ 12/ 14 1009.3F         1
BUZZARDS BAY     NOT AVBL
NANTUCKET SOUND  2150      67   70/ 10/ 12   N/A           1
MASS BAY-STELLWA 2104   62 60  140/ 10/ 10 1010.3R  1 3/4  1
ISLE OF SHOALS   2100   61     130/ 11/ 12 1009.8R
S OF BLOCK IS    2130      62                N/A           2/ 5
$$

......................KEY.........................
  SKY/WX - SKY CONDITION/PRESENT WEATHER
  TMP    - TEMPERATURE IN FAHRENHEIT
  DWPT   - DEWPOINT IN FAHRENHEIT
  RH     - RELATIVE HUMIDITY IN PERCENT
  WIND   - DIRECTION AND SPEED IN MPH
  PRES   - MEAN SEA LEVEL PRESSURE IN INCHES OF HG
  WCI    - WIND CHILL INDEX
  VSB    - VISIBILITY IN MILES
  HX     - HEAT INDEX
  TC     - TEMPERATURE IN CELSIUS
  VRB    - VARIABLE WIND DIRECTION
  N/A    - NOT AVAILABLE




USA.gov is the U.S. government's official web portal to all federal, state and local government web resources and services.